Location: Cactus School
(34.5700°N, 118.0931°W)
Time: 01:44:31
(UTC-07:00)

Vanguard 1 Rocket - All Passes

Search period start: 17 April 2024 00:00
Search period end: 27 April 2024 00:00
Orbit: 652 x 4219 km, 34.3° (Epoch: 16 April)

Date Brightness Start Highest point End Pass type
(mag) Time Alt. Az. Time Alt. Az. Time Alt. Az.
17 Apr - 01:53:17 10° W 02:05:45 48° SSW 02:27:20 10° SE visible
17 Apr - 04:23:40 10° W 04:36:02 20° SW 04:51:37 10° S visible
17 Apr - 17:31:44 10° S 17:34:14 14° SE 17:37:02 10° ESE daylight
17 Apr - 19:53:04 10° WSW 19:58:08 69° SSE 20:06:54 10° E visible
17 Apr - 22:16:51 10° W 22:24:05 87° S 22:38:47 10° E visible
18 Apr - 00:41:20 10° W 00:51:49 60° SSW 01:12:01 10° SE visible
18 Apr - 03:08:31 10° W 03:21:25 30° SW 03:40:22 10° SSE visible
18 Apr - 18:42:24 10° SW 18:46:44 42° SSE 18:53:00 10° E daylight
18 Apr - 21:05:48 10° W 21:11:43 89° S 21:23:04 10° E visible
18 Apr - 23:29:52 10° W 23:38:30 72° SSW 23:56:02 10° ESE visible
19 Apr - 01:55:21 10° W 02:07:07 40° SSW 02:26:56 10° SSE visible
19 Apr - 04:28:36 10° WSW 04:37:23 14° SW 04:47:47 10° SSW visible
19 Apr - 17:32:15 10° SSW 17:35:37 21° SE 17:39:31 10° E daylight
19 Apr - 19:54:48 10° WSW 19:59:49 79° SSE 20:08:22 10° E visible
19 Apr - 22:18:41 10° W 22:25:44 82° S 22:39:58 10° ESE visible
20 Apr - 00:43:13 10° W 00:53:17 51° SSW 01:12:12 10° SE visible
20 Apr - 03:11:28 10° W 03:22:48 23° SW 03:38:36 10° S visible
20 Apr - 18:43:55 10° WSW 18:48:18 54° SSE 18:54:38 10° E daylight
20 Apr - 21:07:37 10° W 21:13:26 88° S 21:24:27 10° E visible
20 Apr - 23:31:41 10° W 23:40:03 63° SSW 23:56:44 10° SE visible
21 Apr - 01:57:38 10° W 02:08:33 32° SSW 02:26:07 10° SSE visible
21 Apr - 17:33:15 10° SSW 17:37:06 30° SSE 17:41:33 10° E daylight
21 Apr - 19:56:36 10° W 20:01:32 85° S 20:09:50 10° E visible
21 Apr - 22:20:30 10° W 22:27:22 75° SSW 22:41:05 10° ESE visible
22 Apr - 00:45:14 10° W 00:54:48 42° SSW 01:12:05 10° SE visible
22 Apr - 03:15:27 10° WSW 03:24:17 16° SW 03:35:41 10° S visible
22 Apr - 16:23:18 10° S 16:25:51 15° SSE 16:28:24 10° ESE daylight
22 Apr - 18:45:33 10° WSW 18:49:57 67° SSE 18:56:14 10° E daylight
22 Apr - 21:09:26 10° W 21:15:09 85° S 21:25:48 10° E visible
22 Apr - 23:33:34 10° W 23:41:36 52° SSW 23:57:12 10° SE visible
23 Apr - 02:00:22 10° W 02:10:05 24° SSW 02:24:44 10° SSE visible
23 Apr - 17:34:31 10° SW 17:38:40 41° SSE 17:43:24 10° E daylight
23 Apr - 19:58:24 10° W 20:03:16 89° S 20:11:20 10° E visible
23 Apr - 22:22:18 10° W 22:28:59 65° SSW 22:42:02 10° ESE visible
24 Apr - 00:47:26 10° W 00:56:22 33° SSW 01:11:35 10° SSE visible
24 Apr - 03:23:25 10° SW 03:25:57 10° SW 03:28:39 10° SSW visible
24 Apr - 16:23:44 10° SSW 16:27:24 22° SSE 16:30:53 10° E daylight
24 Apr - 18:47:15 10° WSW 18:51:39 78° S 18:57:48 10° E daylight
24 Apr - 21:11:15 10° W 21:16:50 78° S 21:27:06 10° ESE visible
24 Apr - 23:35:32 10° W 23:43:12 42° SSW 23:57:24 10° SE visible
25 Apr - 02:03:51 10° WSW 02:11:42 17° SSW 02:22:26 10° S night (unlit)
25 Apr - 15:13:54 10° S 15:15:53 12° SSE 15:17:43 10° SE daylight
25 Apr - 17:35:59 10° WSW 17:40:18 54° SSE 17:45:08 10° E daylight
25 Apr - 20:00:12 10° W 20:05:00 87° S 20:12:49 10° E visible
25 Apr - 22:24:09 10° W 22:30:37 54° SSW 22:42:49 10° SE visible
26 Apr - 00:50:00 10° WSW 00:58:00 25° SSW 01:10:36 10° SSE visible
26 Apr - 16:24:39 10° SW 16:29:00 32° SSE 16:32:57 10° E daylight
26 Apr - 18:49:00 10° W 18:53:23 86° S 18:59:23 10° E daylight
26 Apr - 21:13:03 10° W 21:18:30 68° SSW 21:28:18 10° ESE visible
26 Apr - 23:37:40 10° W 23:44:51 33° SSW 23:57:17 10° SSE visible
